GFSMW_con_lsi_021.txt.gz
Lid_Strength_Index
12 12 12 12 12 12 12 11 11 10 9 8 7 6 6 5 5 3 2 2 3 3 6 7 7 8 9 10 11 12 12 13 13 14 14 14 13 13 13 13 13 13 13
13 12 12 13 13 13 12 12 12 11 10 9 8 8 8 8 7 5 4 3 3 4 5 7 8 9 11 11 11 12 13 13 13 14 15 16 15 14 13 13 13 14 13
13 13 13 13 13 13 13 12 12 12 12 11 10 9 9 9 9 9 7 6 5 4 5 6 8 9 9 11 11 12 12 13 14 13 14 17 17 16 14 14 14 14 15
12 13 13 13 14 14 13 12 12 12 12 12 12 13 12 12 11 11 10 10 8 7 6 6 7 9 10 11 12 12 12 13 15 15 13 14 14 17 17 15 15 15 15
12 12 12 12 12 13 14 14 12 12 12 12 12 13 13 13 13 12 12 12 11 9 8 8 8 9 10 11 11 12 13 14 14 14 15 15 15 15 17 18 17 16 15
12 12 11 11 12 13 14 14 14 14 12 12 12 13 14 14 14 13 13 13 12 12 12 11 10 10 10 11 11 11 12 12 14 14 15 15 15 16 16 17 18 18 17
13 13 12 13 13 13 14 14 14 14 14 13 13 14 14 14 14 14 14 14 14 13 13 13 13 12 11 11 12 13 13 13 12 13 13 13 14 15 15 16 18 18 17
12 12 13 13 13 13 13 14 14 14 13 13 14 14 14 14 14 15 15 15 14 14 14 14 14 13 13 12 12 13 14 14 13 13 13 13 13 15 15 15 17 19 19
12 12 12 13 13 13 14 14 14 14 13 13 13 13 14 14 15 15 15 15 15 14 14 14 15 14 14 14 14 14 15 15 15 14 14 13 13 15 14 15 16 16 19
12 13 13 13 13 13 13 13 13 14 14 14 13 13 14 14 14 14 15 15 15 15 15 15 14 14 14 14 14 15 15 15 15 15 15 14 14 14 14 13 15 16 14
13 13 14 13 13 13 12 13 13 13 13 13 13 13 13 14 14 15 15 15 15 14 14 15 15 15 15 14 14 14 14 15 14 14 15 15 15 14 13 15 15 14 17
13 10 11 12 12 12 12 13 13 13 13 13 14 14 14 14 15 15 15 15 16 15 15 14 15 15 15 14 13 13 14 14 14 13 14 14 14 15 14 14 14 14 15
12 12 12 13 13 13 13 13 12 12 12 12 14 14 15 15 14 15 14 15 15 15 16 15 16 15 15 15 14 14 13 13 13 13 13 13 14 14 14 15 14 13 14
12 13 13 13 13 12 12 12 12 12 12 12 13 14 14 14 14 15 16 15 14 15 15 15 15 15 15 14 14 14 13 13 12 13 12 12 13 13 13 14 14 14 14
12 13 13 13 13 13 12 12 12 12 12 12 13 13 13 13 13 13 13 14 13 13 14 14 14 13 14 14 14 13 13 13 12 12 12 12 11 11 11 13 13 13 13
12 13 12 12 12 12 12 11 11 11 11 12 12 11 11 11 12 12 12 12 12 13 13 13 14 15 14 11 11 11 13 12 12 12 12 11 12 11 10 9 10 11 13
12 12 12 11 11 11 10 10 10 11 12 13 12 12 12 12 11 11 12 12 13 13 13 14 14 14 14 11 11 11 12 13 13 12 12 12 11 11 11 10 9 10 10
11 10 10 10 10 10 10 10 10 12 11 12 13 13 12 13 13 13 14 14 14 14 14 14 14 14 13 11 11 11 13 13 13 13 13 13 12 11 11 11 11 11 10
10 10 9 9 10 11 11 11 12 12 12 13 13 13 14 16 16 17 17 16 17 17 17 16 16 16 16 13 12 12 13 14 15 14 14 14 13 11 10 11 12 12 11
9 9 9 10 11 13 12 13 13 15 15 14 14 15 16 18 18 18 19 19 19 19 19 19 19 19 19 16 15 14 16 16 16 15 14 13 13 11 10 12 12 12 12
9 10 11 12 13 13 13 15 15 16 15 16 16 17 18 19 20 20 20 21 21 21 22 22 21 21 20 19 16 15 16 16 17 16 16 14 12 11 10 9 11 11 10
11 11 12 13 13 14 15 16 16 15 17 18 19 20 21 21 20 22 21 22 22 23 23 23 22 21 20 17 16 15 14 14 17 18 16 16 13 11 10 10 9 8 8
11 12 14 15 14 16 17 18 17 17 18 22 23 22 21 21 20 22 22 23 23 23 23 23 23 22 20 19 16 15 14 14 16 17 16 14 14 13 11 10 8 8 9
14 15 17 18 19 18 17 19 19 18 24 25 22 21 21 21 22 21 22 23 24 24 24 24 23 22 19 18 16 17 18 16 16 16 17 17 15 13 13 13 10 9 9
15 16 18 18 18 18 19 21 19 22 23 21 20 20 21 22 22 21 22 22 22 21 21 20 19 19 18 16 13 13 14 14 15 16 18 18 17 17 16 15 11 11 10
16 17 18 19 20 22 21 21 23 25 24 21 20 21 21 22 22 22 22 18 17 16 16 15 16 16 13 12 11 11 11 10 11 15 17 17 18 18 17 16 13 12 11

GFSMW_con_lsi_024.txt.gz
Lid_Strength_Index
13 13 13 13 13 13 13 12 12 12 11 10 8 7 7 7 7 4 3 2 2 4 5 5 6 7 7 7 9 12 12 13 14 14 14 14 14 13 14 13 13 13 12
14 14 14 14 14 14 13 13 13 13 12 11 11 9 10 9 9 7 7 7 4 3 5 6 6 7 8 9 10 10 13 13 13 14 16 16 15 14 14 14 13 13 13
15 14 14 15 15 15 14 13 13 13 13 12 12 11 11 11 11 11 11 10 9 6 5 5 7 8 8 9 10 11 11 13 14 14 14 17 17 16 15 15 14 14 14
14 14 14 15 15 15 14 14 13 13 12 12 13 13 14 14 14 13 13 12 12 11 10 8 7 8 9 9 10 10 11 12 13 15 14 14 15 16 17 15 15 15 14
14 14 14 14 14 14 15 15 14 14 13 13 13 13 14 14 13 13 14 13 13 13 13 12 12 10 9 10 10 11 12 12 12 13 15 16 16 16 17 17 17 16 15
14 14 13 13 14 15 15 14 13 14 14 14 14 14 15 15 16 15 15 14 14 14 14 13 13 13 12 11 10 11 11 12 12 13 13 13 15 16 16 18 18 18 17
14 14 14 14 15 15 15 14 14 14 13 14 15 15 16 16 16 16 15 16 16 15 15 15 15 14 14 13 13 12 12 12 12 12 12 12 13 14 15 16 18 18 17
13 13 13 14 15 14 14 15 14 14 14 13 14 15 15 16 15 15 15 15 15 15 15 15 15 15 15 14 14 15 14 14 14 13 13 12 12 13 13 14 16 17 18
13 13 13 13 13 14 14 14 14 14 14 14 14 14 14 15 16 15 15 15 15 14 14 14 15 15 16 16 16 16 16 16 16 16 15 14 13 14 13 13 13 14 16
13 12 13 13 13 13 13 14 14 15 15 15 14 14 14 14 14 15 15 15 15 15 15 15 14 15 15 15 16 16 16 16 15 15 16 16 15 14 14 13 13 14 14
13 13 13 13 13 14 14 14 13 13 13 13 13 13 13 13 14 14 14 15 15 15 15 15 15 15 15 15 15 15 15 15 15 15 15 15 15 15 15 16 14 13 13
13 12 13 13 13 13 13 13 12 12 12 12 13 13 13 13 14 13 13 15 14 14 16 15 16 15 16 15 15 15 15 15 15 14 14 14 13 14 14 15 15 16 14
13 12 13 13 14 14 13 13 13 12 12 12 13 13 13 14 14 13 13 13 13 14 14 15 16 16 15 15 15 15 15 15 15 15 14 14 15 14 13 13 14 14 13
12 13 13 14 14 13 13 13 13 13 13 13 13 14 14 14 14 14 14 14 14 14 14 14 14 15 15 14 15 16 16 16 15 14 14 14 14 14 14 12 12 12 13
13 13 13 13 14 13 13 12 12 12 12 13 13 13 13 13 13 13 13 13 13 13 13 14 14 14 14 14 14 14 15 16 15 15 14 13 13 12 12 13 12 11 11
12 13 13 13 13 13 13 12 12 12 12 12 13 12 12 12 12 12 12 12 13 13 14 14 14 15 13 12 11 12 14 14 16 16 16 15 13 12 10 10 10 11 12
13 13 13 13 13 13 12 12 12 12 13 14 14 13 13 13 13 13 14 14 15 15 15 15 15 15 15 12 12 12 13 14 15 14 14 14 14 13 12 10 10 10 9
12 13 13 13 12 12 12 12 12 12 12 14 15 15 14 15 15 15 16 16 16 17 17 17 17 17 16 14 13 13 15 15 15 15 14 14 14 14 14 13 13 11 11
12 12 11 11 11 12 12 12 12 12 13 14 14 15 16 18 17 18 18 18 18 19 19 18 19 20 20 16 15 15 17 16 16 15 15 15 15 13 12 14 14 14 13
11 11 10 11 12 13 12 13 14 15 15 15 15 16 17 20 19 19 20 19 20 19 19 20 20 20 21 18 16 16 17 18 18 16 15 14 14 13 12 13 14 15 15
10 10 11 12 12 13 14 15 15 16 16 16 17 18 18 19 20 20 20 20 21 21 22 21 21 21 20 20 16 15 16 17 18 17 16 15 13 13 13 12 14 13 12
10 10 12 13 14 14 15 16 17 16 18 19 20 20 21 21 20 22 21 22 22 23 23 23 22 21 20 19 17 15 14 14 16 17 16 16 14 13 12 13 12 12 11
10 11 13 14 14 16 17 18 17 18 19 23 25 24 23 21 20 22 22 22 22 23 23 22 23 23 21 20 16 15 14 14 16 16 14 12 12 12 12 13 13 14 14
13 15 16 17 17 17 16 19 20 20 26 29 25 22 22 21 22 21 20 22 23 23 23 23 22 21 19 18 17 17 16 15 14 14 15 14 12 12 13 14 14 14 14
14 16 16 17 17 17 18 20 20 24 25 25 22 21 21 23 21 20 21 21 19 19 20 18 18 18 18 17 14 13 14 14 12 12 13 15 18 18 18 18 16 15 15
16 17 18 18 19 20 20 20 24 26 27 23 21 21 20 20 20 21 21 17 15 14 14 14 15 16 14 13 12 12 11 11 10 13 14 14 14 15 16 17 17 16 15

GFSMW_con_lsi_030.txt.gz
Lid_Strength_Index
15 15 15 16 15 15 14 14 13 13 12 12 11 11 12 12 12 11 11 11 10 9 8 7 7 7 7 7 7 9 9 9 12 12 11 13 13 14 14 14 13 13 12
16 16 16 16 17 16 15 15 14 14 13 13 12 12 12 13 13 12 13 13 13 12 11 10 9 9 8 9 9 10 10 11 12 12 14 13 13 14 14 14 14 14 14
17 17 17 17 17 17 17 16 15 15 14 13 13 13 14 14 15 15 15 15 15 14 13 13 13 12 11 10 10 10 10 11 11 12 12 14 15 15 15 15 15 14 14
17 17 17 18 18 17 17 16 16 16 15 15 15 16 16 17 17 17 16 15 15 15 15 15 15 14 14 14 13 11 11 11 12 12 12 13 14 15 15 15 14 15 14
17 17 17 17 17 17 18 17 17 16 16 16 16 16 17 17 17 17 16 16 16 15 15 15 15 16 15 15 15 14 13 12 12 12 12 13 14 14 15 15 15 14 15
17 17 17 17 17 17 17 17 17 16 16 16 16 17 17 17 16 17 16 16 16 16 15 15 15 15 16 16 16 16 15 15 14 13 13 13 13 14 14 15 13 13 14
16 16 17 18 17 17 17 16 16 16 16 16 16 17 17 17 17 17 17 17 17 16 16 16 16 16 15 15 16 17 17 17 17 15 14 14 13 13 13 14 14 14 14
15 15 16 17 17 17 16 16 16 17 16 16 16 16 17 17 17 16 16 17 16 16 16 16 16 16 16 16 16 16 16 17 18 18 17 15 14 14 14 14 16 16 15
15 15 15 16 16 17 17 16 16 17 16 16 16 16 16 16 17 17 16 16 16 15 15 16 16 16 16 15 16 16 16 16 15 16 16 16 15 14 14 14 14 16 17
15 15 15 15 15 16 16 16 16 16 16 15 15 15 15 15 16 15 15 15 15 15 15 15 15 15 15 16 16 16 16 16 16 15 16 15 14 14 14 14 14 14 15
14 14 15 15 15 15 16 16 16 15 15 15 15 14 14 15 15 15 15 15 15 15 15 15 15 15 15 15 16 16 16 16 16 16 16 15 15 15 14 14 14 14 15
14 13 14 14 15 15 15 15 15 15 14 14 14 14 14 14 15 15 15 15 15 15 15 14 15 15 15 15 16 16 16 16 16 16 16 16 14 15 15 15 15 14 14
13 14 15 15 15 15 15 14 14 13 13 14 14 14 14 15 15 15 15 15 15 15 15 15 16 16 16 16 16 16 15 15 15 15 15 15 15 15 15 15 15 14 13
13 14 15 15 15 14 14 14 14 13 13 13 14 14 14 15 15 15 15 16 16 16 17 17 17 16 16 16 15 15 15 15 15 15 15 15 15 15 15 15 15 14 14
13 14 13 14 14 14 14 14 14 14 13 14 14 14 14 15 15 16 16 17 16 17 16 16 16 16 15 14 14 14 14 14 15 14 14 14 14 13 13 14 15 15 15
12 12 12 12 12 13 13 13 14 13 13 14 14 15 15 15 16 17 17 16 16 16 16 16 16 16 15 13 12 12 14 14 15 16 15 15 15 14 13 12 12 12 14
11 11 12 12 11 12 12 13 13 13 15 15 17 17 17 17 17 17 16 16 17 16 17 17 17 17 17 13 12 12 14 15 15 16 16 16 15 15 15 14 13 13 13
12 11 11 13 12 13 13 13 13 15 15 16 18 17 17 18 17 17 17 17 17 18 18 18 18 18 17 14 13 13 14 15 16 16 16 16 16 16 15 15 15 15 14
13 13 13 13 14 13 13 14 15 15 16 16 16 17 17 18 18 20 19 19 19 19 20 18 19 20 19 15 14 14 15 16 16 16 15 15 16 15 13 14 15 15 14
13 12 12 13 13 13 14 15 16 16 17 16 15 16 17 20 21 19 20 20 21 19 18 19 19 20 20 16 14 13 15 17 16 15 15 13 13 12 12 14 15 16 15
12 12 13 13 13 14 15 16 16 16 16 16 17 17 18 20 21 21 21 23 23 20 22 21 21 21 19 19 14 12 13 14 15 15 14 14 12 12 12 11 13 14 13
12 12 13 13 14 15 15 16 16 16 17 18 18 19 20 21 20 26 25 25 25 25 24 24 22 19 18 16 14 11 11 11 14 15 14 14 11 11 10 10 10 9 10
12 12 13 14 15 16 14 15 16 17 18 20 20 22 22 20 20 25 23 24 26 25 23 21 21 20 17 17 12 11 11 10 12 12 12 10 10 10 11 11 10 11 12
13 14 16 16 15 16 15 17 17 18 22 24 21 20 21 20 21 20 20 24 25 23 22 22 21 20 16 15 14 14 12 11 12 11 12 13 13 13 13 15 14 14 14
14 15 14 13 14 17 18 19 19 20 22 23 21 20 20 21 21 21 20 20 20 19 21 18 16 16 16 15 11 11 12 12 12 14 17 20 20 20 19 18 17 17 17
15 15 15 15 16 17 19 21 22 22 22 21 20 20 20 20 20 20 21 16 13 11 10 10 12 14 12 11 11 10 11 11 13 20 24 23 23 22 21 21 20 19 18

GFSMW_con_lsi_033.txt.gz
Lid_Strength_Index
15 15 15 15 15 14 14 13 12 12 10 10 10 11 12 12 13 13 13 12 11 10 10 8 8 7 8 8 8 7 8 8 10 10 9 10 10 11 10 10 10 10 10
16 16 16 16 16 16 15 15 14 13 12 11 11 11 12 13 14 14 14 14 13 12 12 11 11 11 10 10 10 9 8 9 10 10 11 11 9 10 10 11 11 10 11
17 17 17 17 16 17 17 16 15 14 14 13 12 13 13 14 14 15 15 15 14 14 13 13 13 13 12 12 12 11 10 10 9 10 10 11 12 12 8 10 11 11 10
16 17 17 17 17 17 16 16 16 15 15 14 14 15 15 16 16 16 15 15 15 14 14 13 13 13 13 13 13 13 12 11 12 10 10 11 12 13 13 10 9 10 11
17 17 17 17 17 17 17 16 16 16 16 15 15 15 16 15 15 15 15 15 15 15 14 14 14 14 13 14 13 13 13 12 13 13 12 11 11 12 14 13 12 10 9
16 17 17 17 17 16 16 16 16 16 16 16 16 16 16 16 15 15 15 15 15 15 14 14 14 14 14 14 14 13 13 13 13 13 13 13 13 13 13 14 13 13 11
17 17 17 17 17 16 16 16 16 16 16 16 16 15 15 15 16 16 15 15 15 15 15 15 14 14 14 14 14 14 14 14 13 13 13 12 13 13 14 14 15 14 13
16 16 17 17 16 16 16 16 16 16 16 15 15 15 15 15 16 15 15 15 15 15 14 14 14 14 14 14 14 14 14 14 14 14 14 13 13 12 12 14 15 17 16
16 15 16 16 17 16 16 16 16 16 16 15 15 16 16 15 15 15 15 15 14 14 14 14 14 14 14 14 14 14 14 14 14 14 14 14 13 13 13 12 13 15 18
16 16 15 16 16 16 16 16 16 16 15 15 15 15 15 15 15 14 14 14 14 14 13 14 14 14 14 14 14 14 14 15 14 14 14 14 13 13 13 13 13 13 14
15 15 15 15 15 16 16 16 16 16 15 15 15 15 14 14 14 14 14 14 14 14 14 14 14 14 15 15 15 15 14 15 15 14 14 14 14 14 13 13 13 14 14
14 14 14 14 15 15 16 16 16 15 15 15 14 14 13 13 14 14 14 14 14 14 14 15 15 15 15 15 15 15 15 15 15 15 14 14 14 14 14 13 14 14 13
14 14 14 15 15 15 15 15 15 15 14 14 14 14 13 14 14 14 14 14 15 15 16 16 16 16 16 16 16 15 15 15 15 15 15 15 15 15 14 14 14 13 13
14 14 15 14 15 15 15 15 15 14 14 13 13 13 13 13 14 14 15 15 15 16 16 16 16 16 16 16 15 15 15 14 14 13 14 14 14 15 14 14 14 13 13
14 14 14 15 15 15 15 14 14 14 13 13 13 13 13 14 14 15 16 16 16 16 17 17 17 17 16 14 14 13 13 13 13 13 13 13 13 13 13 13 13 13 14
13 13 14 14 15 14 14 14 13 13 13 12 12 13 13 14 15 16 16 16 17 17 17 17 17 17 15 13 12 11 13 13 14 14 14 14 14 14 13 12 12 12 14
14 13 13 13 13 13 12 12 12 13 13 13 14 15 15 15 16 17 17 18 18 17 17 17 17 17 16 13 12 11 13 13 14 15 15 15 14 14 15 14 13 13 12
13 12 12 12 12 12 12 12 12 13 13 14 15 16 16 17 18 18 18 18 18 18 17 17 17 17 16 13 12 12 13 14 14 14 14 15 15 14 14 14 14 14 13
13 13 12 12 13 13 13 13 14 14 14 14 15 16 17 18 18 19 18 18 18 18 18 17 18 18 18 14 12 12 13 14 14 14 14 14 14 13 11 12 13 13 12
14 13 13 13 13 13 13 14 14 15 15 14 15 16 17 19 19 18 18 18 19 18 18 18 18 19 19 16 13 12 13 14 14 13 13 11 11 10 9 11 12 14 13
13 13 13 13 13 13 14 14 15 15 14 16 16 17 17 18 18 19 19 20 20 19 21 20 20 19 19 18 13 12 12 13 13 12 12 11 10 9 9 9 11 12 11
13 12 13 13 13 14 15 15 15 15 16 16 17 18 20 18 19 22 21 22 22 22 22 22 21 18 17 15 13 11 10 10 12 12 11 11 9 8 9 10 10 10 10
13 13 13 13 13 15 14 14 14 16 17 18 20 21 21 20 20 22 21 20 21 22 21 20 20 18 16 15 12 10 10 9 10 10 10 10 11 11 13 13 12 13 14
14 14 15 15 14 16 15 14 16 17 19 21 21 21 21 20 21 19 19 21 21 21 20 20 20 18 17 15 13 13 11 9 9 11 14 14 15 15 15 17 16 16 16
14 16 15 14 13 16 16 18 18 19 20 21 20 20 21 21 19 19 18 18 18 19 22 20 19 18 15 14 10 9 10 10 11 16 19 20 20 20 20 19 19 18 18
16 16 15 15 16 18 19 19 20 19 20 20 20 20 20 19 19 19 19 16 13 12 11 9 10 11 10 10 9 9 8 9 11 19 23 22 22 22 21 21 21 20 20